Theta_e
338 332 332 332 329 329 331 334 335 334 334 331 333 334 335 334 333 333 333 331 329 330
332 328 329 329 330 330 332 333 333 333 333 332 333 335 334 333 333 333 333 332 331 329
330 328 328 328 330 328 329 332 333 332 332 333 333 334 333 332 332 332 331 330 330 330
328 328 329 330 332 330 330 331 332 332 332 332 332 333 332 331 332 331 331 330 330 329
330 330 330 331 332 331 331 330 331 332 332 332 333 333 332 332 333 332 330 331 330 330
330 330 331 332 331 330 331 330 332 333 333 332 332 331 332 332 331 331 331 331 330 329
331 331 332 332 331 331 330 330 331 332 331 330 329 330 332 332 331 330 330 331 330 329
334 333 333 332 332 331 330 331 332 332 330 330 330 331 332 332 331 331 331 330 329 328
335 334 334 334 333 332 331 331 330 330 330 330 331 328 328 332 332 332 329 328 328 326
332 333 333 333 332 332 331 332 331 331 331 331 332 325 324 327 332 329 326 325 324 323
333 332 332 333 333 332 331 331 330 330 331 330 332 322 321 325 329 328 326 324 323 322
334 333 334 333 331 332 332 331 331 333 330 328 330 321 320 323 328 325 325 323 322 320
336 337 334 333 332 332 332 332 332 329 329 325 330 322 318 320 325 323 321 320 322 318
335 333 332 331 333 332 330 328 328 328 328 329 329 327 316 313 323 321 319 319 318 318
Wind_Speed
9 6 6 7 4 5 4 4 5 5 5 5 5 4 4 2 3 4 4 5 4 3
9 9 8 8 6 4 4 4 5 6 6 5 4 5 4 3 3 4 4 5 5 4
11 11 9 8 8 7 7 5 6 5 5 5 5 5 4 3 2 2 3 3 4 6
11 11 9 10 9 8 7 7 6 6 6 5 6 5 4 4 4 4 4 4 6 7
12 11 11 10 10 9 9 7 8 7 6 6 6 5 5 5 4 5 5 6 6 8
13 13 13 11 9 8 8 8 7 8 8 8 7 5 6 5 5 6 7 7 7 8
17 18 13 7 5 7 7 7 8 8 7 6 6 6 6 5 5 6 7 7 8 7
16 11 12 11 5 5 6 7 5 5 5 7 6 6 6 6 6 6 8 7 7 6
10 9 9 9 7 8 9 10 7 10 8 9 5 7 8 7 5 7 7 7 5 4
13 14 14 12 15 13 11 9 12 10 9 9 5 8 9 9 5 7 6 6 5 5
15 15 15 17 17 15 14 14 8 7 9 6 4 8 12 9 6 6 6 5 5 6
15 17 15 15 13 11 6 4 4 2 4 2 5 15 10 6 5 5 5 4 5 5
12 11 5 5 6 6 5 5 4 3 2 3 10 10 13 5 3 3 3 4 3 5
8 6 6 3 3 5 7 8 9 8 7 3 11 9 12 8 4 3 2 3 3 2
Wind_Direction
181 185 189 180 179 187 187 193 174 179 179 189 184 188 183 192 219 213 212 214 212 208
180 176 189 184 183 181 183 189 183 186 182 194 197 205 185 203 212 203 216 231 219 223
187 185 181 167 189 187 187 185 180 184 195 204 211 203 191 220 232 228 239 242 227 232
184 184 174 180 187 187 176 184 188 185 198 211 220 209 202 218 234 233 248 236 232 244
176 180 182 191 186 176 183 180 180 186 202 210 225 223 214 222 225 229 236 246 244 253
180 184 190 191 181 182 179 187 189 191 201 208 207 218 222 217 228 227 228 232 234 247
187 191 180 174 183 188 193 186 202 204 206 207 212 211 228 219 228 240 245 242 237 235
193 158 160 147 125 255 189 197 201 216 221 230 204 219 231 229 237 246 253 241 235 234
155 149 143 107 352 235 227 214 177 215 207 221 219 222 239 240 246 247 241 256 254 243
153 156 154 157 182 229 235 232 220 209 208 220 218 222 243 229 229 245 237 237 254 277
163 168 175 189 198 199 219 226 209 194 217 208 206 246 246 222 227 247 243 230 233 246
171 176 186 214 194 198 193 186 213 180 184 219 276 245 259 263 255 261 260 230 226 230
178 194 193 215 150 124 134 146 169 160 168 181 268 267 266 234 232 239 236 220 242 251
143 132 119 118 121 124 135 161 175 179 168 228 254 271 274 222 193 200 204 232 250 264